Tracking 35334 objects as of 12-Sep-2026
HD Live streaming from Space Station
objects crossing your sky now

COSMOS 1561

Track COSMOS 1561 now!
10-day predictions
COSMOS 1561 is classified as:


NORAD ID: 15000
Int'l Code: 1984-052C
Launch date: May 28, 1984
Source: Commonwealth of Independent States (former USSR) (CIS)
Launch site: PLESETSK MISSILE AND SPACE COMPLEX (PKMTR)
Your satellite tracking list
Your tracking list is empty




NASA's NSSDC Master Catalog

Two Line Element Set (TLE):
1 15000U 84052C   26255.12272634 -.00000002  00000-0  92992-4 0  9990
2 15000  74.0093 275.7195 0014378 124.6412 293.1860 12.47992536926587
Source of the keplerian elements: AFSPC